Tracking 18917 objects as of 16-Jan-2018
HD Live streaming from Space Station
objects crossing your sky now

EXPRESS 3A

Track EXPRESS 3A now!
EXPRESS 3A is classified as:


NORAD ID: 26378
Int'l Code: 2000-031A
Perigee: 36,185.4 km
Apogee: 36,254.7 km
Inclination: 7.4 °
Period: 1,457.9 minutes
Semi major axis: 42591 km
RCS: 37.9323 m2 (large)
Launch date: June 24, 2000
Source: Commonwealth of Independent States (former USSR) (CIS)
Launch site: TYURATAM MISSILE AND SPACE COMPLEX (TTMTR)

Data transmission, TV and radio broadcasting, communications, Internet, video-conference, and others; digital format throughout Russia.
aabbcc
Your satellite tracking list
Your tracking list is empty




NASA's NSSDC Master Catalog

Two Line Element Set (TLE):
1 26378U 00031A   18015.38795955 -.00000232 +00000-0 +00000-0 0  9994
2 26378 007.4276 051.2792 0008137 196.8157 342.4182 00.98769999063858
Source of the keplerian elements: AFSPC